[[{"header":{"parameterUnit":"m.s-1","parameterCategory":1,"la1":30.2991,"la2":30.254,"lo1":-89.0895,"lo2":-89.0444,"dy":0.0017,"dx":0.0017,"nx":28,"ny":28,"refTime":"2025-11-30T03:00:00:Z","depth":0,"parameterNumber":2,"parameterNumberName":"U-component_of_WINDS"},"data":[0,0,0,0,0,0,0,0,0,0,0,0,0,0,0,0,0,0,0,0,0,0,0,0,0,0,0,0,0,0,0,0,0,0,0,0,0,0,0,0,0,0,0,0,0,0,0,0,0,0,0,0,0,0,0,0,0,0,-4.8329,-4.833,0,-4.8441,-4.8443,-4.8444,-4.8353,-4.835,-4.8346,-4.8342,-4.8458,-4.8464,-4.8471,0,0,0,0,0,0,0,0,0,0,0,0,0,-4.8034,-4.804,-4.8328,-4.833,-4.8331,-4.8441,-4.8443,-4.8444,-4.8354,-4.8349,-4.8345,-4.834,-4.8456,-4.8464,-4.8472,0,0,0,0,0,0,0,0,0,0,0,0,0,-4.8156,-4.8042,-4.8328,-4.83,-4.8298,-4.8441,-4.8443,-4.8445,-4.8355,-4.8349,-4.8344,-4.8338,-4.8453,-4.8463,-4.8473,-4.865,0,0,-4.8503,-4.8508,0,0,0,0,0,0,0,0,-4.8149,-4.8167,-4.8302,-4.8302,-4.83,-4.8377,-4.8381,-4.8513,-4.8357,-4.8334,-4.8342,-4.8335,-4.8436,-4.8447,-4.8481,-4.8655,-4.866,-4.8504,-4.851,-4.8514,-4.8517,0,0,0,0,0,0,0,-4.8141,-4.8162,-4.8373,-4.8304,-4.8303,-4.8281,-4.8292,-4.8406,-4.8416,-4.8335,-4.8329,-4.8343,-4.8434,-4.8471,-4.8483,-4.8662,-4.8504,-4.8513,-4.8519,-4.8523,-4.8986,-4.8992,0,0,0,0,0,0,-4.8135,-4.8155,-4.8369,-4.8376,-4.8209,-4.8291,-4.8303,-4.8359,-4.8414,-4.8417,-4.8348,-4.8339,-4.8457,-4.8471,-4.8486,-4.8697,-4.8514,-4.8524,-4.853,-4.898,-4.8988,-4.8994,0,0,0,0,0,0,-4.813,-4.8155,-4.8365,-4.8264,-4.8289,-4.8302,-4.8365,-4.8364,-4.8401,-4.8424,-4.8425,-4.8384,-4.8453,-4.8472,-4.861,-4.87,-4.8528,-4.8537,-4.8973,-4.8982,-4.8991,-4.9121,0,0,0,0,0,0,-4.8121,-4.8154,-4.8222,-4.8266,-4.8295,-4.8487,-4.8371,-4.837,-4.8418,-4.8407,-4.8458,-4.8461,-4.845,-4.8595,-4.862,-4.8711,-4.8545,-4.8965,-4.8977,-4.8988,-4.9109,-4.9134,-4.9155,0,0,0,0,0,-4.8111,-4.8254,-4.8226,-4.8252,-4.838,-4.8492,-4.8509,-4.8493,-4.8426,-4.8494,-4.8509,-4.846,-4.8686,-4.861,-4.8637,-4.8732,-4.8959,-4.8973,-4.8987,-4.9098,-4.9129,-4.9154,0,0,0,0,0,0,-4.822,-4.8259,-4.8228,-4.839,-4.8438,-4.8477,-4.8562,-4.8526,-4.8594,-4.8581,-4.8558,-4.857,-4.8715,-4.8737,-4.8652,-4.8906,-4.8812,-4.8832,-4.8887,-4.8916,-4.8939,-4.8931,-4.8553,0,0,0,0,0,-4.8262,-4.8351,-4.838,-4.852,-4.8546,-4.855,-4.8598,-4.8582,-4.8631,-4.8652,-4.8676,-4.8726,-4.8808,-4.8863,-4.894,-4.911,-4.912,-4.9189,-4.9212,-4.9231,-4.925,-4.9341,-4.9372,-4.9041,-4.9041,-4.9041,0,0,-4.8352,-4.8384,-4.8441,-4.8542,-4.8578,-4.867,-4.8568,-4.8669,-4.8737,-4.8667,-4.8798,-4.8818,-4.8872,-4.9027,-4.9096,-4.905,-4.9343,-4.925,-4.9264,-4.9273,-4.9359,-4.9391,-4.9418,-4.9051,-4.9049,-4.9047,0,0,-4.8561,-4.8595,-4.8715,-4.8752,-4.8807,-4.8809,-4.8838,-4.8882,-4.8892,-4.9024,-4.8972,-4.9052,-4.9194,-4.9235,-4.9274,-4.9498,-4.9455,-4.9523,-4.9645,-4.9735,-4.9761,-4.9784,-4.9864,-4.9893,-4.9541,-4.9541,-4.9542,0,-4.8666,-4.8802,-4.8781,-4.8886,-4.8932,-4.8872,-4.8993,-4.903,-4.9108,-4.9141,-4.9087,-4.9264,-4.9296,-4.9459,-4.9514,-4.9547,-4.9579,-4.9518,-4.9759,-4.9782,-4.9803,-4.9879,-4.991,-4.9549,-4.9548,-4.9548,-4.9547,0,-4.8927,-4.9023,-4.9113,-4.9189,-4.9245,-4.9358,-4.9353,-4.9412,-4.939,-4.9397,-4.9531,-4.9567,-4.965,-4.9687,-4.9667,-4.9848,-4.9817,-4.9762,-4.9667,-4.9843,-4.9914,-4.9943,-4.9561,-4.9558,-4.9555,-4.9554,0,0,-4.9211,-4.9273,-4.9307,-4.934,-4.9396,-4.9469,-4.9578,-4.9659,-4.971,-4.9765,-4.9857,-4.9977,-4.9926,-4.9971,-4.9954,-5.0033,-5.0208,-4.9967,-4.9968,-5.0012,-5.041,-5.0452,-5.0486,-5.0179,-5.0185,-5.0189,-5.0405,0,-4.9424,-4.9615,-4.9598,-4.9779,-4.9867,-4.981,-4.9905,-4.9949,-4.9958,-5.0034,-5.0043,-5.013,-5.0055,-5.0082,-5.0157,-5.0171,-5.0288,-5.0155,-5.0264,-5.0269,-5.0254,-5.0523,-5.0569,-5.0772,-5.0433,-5.0438,-5.0441,0,-4.9698,-4.9763,-4.9953,-4.9994,-5.003,-5.0116,-5.0189,-5.0261,-5.031,-5.0311,-5.036,-5.033,-5.044,-5.0341,-5.0492,-5.0402,-5.0445,-5.0458,-5.0466,-5.0477,-5.0367,-5.0543,-5.0836,-5.0867,-5.0485,-5.0481,-5.0478,0,-4.9887,-5.0021,-5.0152,-5.0182,-5.0234,-5.0296,-5.032,-5.0363,-5.0412,-5.0475,-5.0507,-5.0582,-5.0624,-5.0682,-5.0672,-5.0601,-5.0826,-5.0727,-5.0831,-5.0831,-5.0882,-5.0879,-5.1188,-5.0908,-5.0908,-5.0907,-5.0907,0,-5.0127,-5.0246,-5.0237,-5.0318,-5.0449,-5.0428,-5.0558,-5.0574,-5.0613,-5.0695,-5.065,-5.0728,-5.071,-5.0788,-5.0781,-5.0907,-5.0926,-5.093,-5.0927,-5.0935,-5.0935,-5.0964,-5.0951,-5.0915,-5.0913,-5.0912,-5.0911,0,-5.0361,-5.036,-5.0499,-5.0536,-5.0548,-5.0643,-5.0675,-5.075,-5.0755,-5.086,-5.0883,-5.0891,-5.098,-5.0976,-5.1077,-5.1072,-5.1227,-5.1207,-5.1212,-5.1208,-5.1312,-5.1303,-5.1652,-5.1696,-5.1387,-5.139,-5.1392,0,-5.0516,-5.0606,-5.0652,-5.0704,-5.0733,-5.0817,-5.0867,-5.0849,-5.0903,-5.0964,-5.1033,-5.1118,-5.1185,-5.1329,-5.1344,-5.1421,-5.1403,-5.1519,-5.1414,-5.1419,-5.1406,-5.1401,-5.141,-5.1541,-5.1544,-5.1547,-5.1549,0,-5.079,-5.0785,-5.0859,-5.0933,-5.0994,-5.1051,-5.1103,-5.1148,-5.1136,-5.1198,-5.1289,-5.1341,-5.1443,-5.1528,-5.1601,-5.1625,-5.1586,-5.1582,-5.161,-5.162,-5.162,-5.1622,-5.1269,-5.1575,-5.1572,-5.157,-5.1569,-5.1568,-5.099,-5.1067,-5.1111,-5.1195,-5.1232,-5.1282,-5.1355,-5.1368,-5.1444,-5.1526,-5.151,-5.1612,-5.1657,-5.1751,-5.1782,-5.1861,-5.1819,-5.186,-5.187,-5.1881,-5.1894,-5.1606,-5.1874,-5.1873,-5.1872,-5.1872,-5.1871,0,-5.1262,-5.1288,-5.1365,-5.144,-5.1505,-5.1461,-5.1516,-5.1574,-5.1664,-5.1709,-5.1776,-5.188,-5.1961,-5.1981,-5.206,-5.2119,-5.2103,-5.214,-5.2136,-5.2143,-5.1926,-5.1894,-5.2152,-5.2152,-5.2152,-5.2152,-5.2152,-5.2152,-5.1412,-5.154,-5.154,-5.1686,-5.171,-5.1809,-5.1845,-5.189,-5.1926,-5.2044,-5.2111,-5.2124,-5.2159,-5.2239,-5.2312,-5.2315,-5.2347,-5.2392,-5.2389,-5.2186,-5.2158,-5.2131,-5.2101,-5.2399,-5.2399,-5.2599,-5.2601,-5.2602]},{"header":{"parameterUnit":"m.s-1","parameterCategory":1,"la1":30.2991,"la2":30.254,"lo1":-89.0895,"lo2":-89.0444,"dy":0.0017,"dx":0.0017,"nx":28,"ny":28,"refTime":"2025-11-30T03:00:00:Z","depth":0,"parameterNumber":3,"parameterNumberName":"V-component_of_WINDS"},"data":[0,0,0,0,0,0,0,0,0,0,0,0,0,0,0,0,0,0,0,0,0,0,0,0,0,0,0,0,0,0,0,0,0,0,0,0,0,0,0,0,0,0,0,0,0,0,0,0,0,0,0,0,0,0,0,0,0,0,-4.5539,-4.5538,0,-4.5523,-4.5523,-4.5522,-4.545,-4.5448,-4.5447,-4.5445,-4.543,-4.5431,-4.5432,0,0,0,0,0,0,0,0,0,0,0,0,0,-4.5506,-4.5507,-4.5539,-4.5538,-4.5538,-4.5523,-4.5523,-4.5522,-4.545,-4.5448,-4.5446,-4.5444,-4.5429,-4.5431,-4.5432,0,0,0,0,0,0,0,0,0,0,0,0,0,-4.5508,-4.5507,-4.5539,-4.55,-4.5497,-4.5523,-4.5523,-4.5522,-4.5451,-4.5448,-4.5446,-4.5443,-4.5429,-4.5431,-4.5432,-4.5494,0,0,-4.5438,-4.5438,0,0,0,0,0,0,0,0,-4.5508,-4.5509,-4.5506,-4.5503,-4.5499,-4.5486,-4.5505,-4.5513,-4.5451,-4.5468,-4.5445,-4.5442,-4.545,-4.545,-4.5453,-4.5493,-4.5493,-4.5438,-4.5439,-4.544,-4.544,0,0,0,0,0,0,0,-4.5508,-4.551,-4.5532,-4.5506,-4.5502,-4.5484,-4.5481,-4.5506,-4.5474,-4.5467,-4.5461,-4.546,-4.5448,-4.5451,-4.5452,-4.5493,-4.5438,-4.5439,-4.544,-4.5441,-4.5581,-4.5584,0,0,0,0,0,0,-4.5513,-4.551,-4.5533,-4.5532,-4.5497,-4.5487,-4.5484,-4.5493,-4.5473,-4.5468,-4.5463,-4.5457,-4.545,-4.545,-4.5451,-4.5521,-4.544,-4.5441,-4.5442,-4.5579,-4.5582,-4.5585,0,0,0,0,0,0,-4.5513,-4.5516,-4.5533,-4.5519,-4.552,-4.549,-4.55,-4.5494,-4.5497,-4.547,-4.5464,-4.5472,-4.5448,-4.5449,-4.5484,-4.552,-4.5442,-4.5444,-4.5576,-4.558,-4.5583,-4.5662,0,0,0,0,0,0,-4.5512,-4.5516,-4.554,-4.5521,-4.5521,-4.5566,-4.5503,-4.5495,-4.55,-4.5493,-4.5478,-4.5473,-4.5446,-4.5481,-4.5485,-4.5521,-4.5445,-4.5572,-4.5577,-4.5582,-4.5656,-4.5669,-4.5679,0,0,0,0,0,-4.5511,-4.5563,-4.5541,-4.5544,-4.555,-4.5569,-4.5569,-4.5537,-4.5503,-4.5526,-4.5509,-4.5473,-4.5515,-4.5486,-4.5489,-4.5526,-4.557,-4.5576,-4.5582,-4.5651,-4.5666,-4.5679,0,0,0,0,0,0,-4.5588,-4.556,-4.5535,-4.5583,-4.5579,-4.5556,-4.5584,-4.5554,-4.5559,-4.5552,-4.5512,-4.551,-4.555,-4.5541,-4.5509,-4.5584,-4.5536,-4.5543,-4.5588,-4.5602,-4.5613,-4.5614,-4.5447,0,0,0,0,0,-4.561,-4.5628,-4.5602,-4.5646,-4.5646,-4.5616,-4.5623,-4.5598,-4.5592,-4.559,-4.5575,-4.5571,-4.5583,-4.5592,-4.5602,-4.5655,-4.565,-4.5682,-4.5693,-4.5703,-4.5709,-4.5735,-4.5748,-4.5604,-4.5604,-4.5604,0,0,-4.5657,-4.5644,-4.5657,-4.5662,-4.5655,-4.5674,-4.5615,-4.5637,-4.565,-4.5594,-4.5625,-4.5614,-4.5607,-4.5651,-4.5669,-4.5645,-4.5748,-4.571,-4.5718,-4.5719,-4.5742,-4.5756,-4.5768,-4.5609,-4.5608,-4.5607,0,0,-4.5751,-4.5743,-4.5778,-4.5773,-4.5764,-4.5743,-4.5752,-4.5734,-4.5725,-4.5756,-4.5713,-4.5728,-4.575,-4.5746,-4.5747,-4.5838,-4.5805,-4.5843,-4.5901,-4.5927,-4.5938,-4.5948,-4.598,-4.5992,-4.5849,-4.5849,-4.5849,0,-4.581,-4.5836,-4.58,-4.5825,-4.5827,-4.5776,-4.5811,-4.5808,-4.5803,-4.5806,-4.5779,-4.5804,-4.5796,-4.5837,-4.5859,-4.5862,-4.587,-4.5844,-4.594,-4.5949,-4.5958,-4.5987,-4.5999,-4.5854,-4.5853,-4.5853,-4.5852,0,-4.5908,-4.5927,-4.5956,-4.5952,-4.5958,-4.5988,-4.5956,-4.5966,-4.5941,-4.5923,-4.5955,-4.5943,-4.5949,-4.5957,-4.5933,-4.5995,-4.598,-4.5947,-4.5898,-4.5977,-4.6004,-4.6015,-4.586,-4.5859,-4.5857,-4.5856,0,0,-4.605,-4.6024,-4.6036,-4.6032,-4.6018,-4.6032,-4.6059,-4.6064,-4.6073,-4.6072,-4.6093,-4.6112,-4.6081,-4.6082,-4.6057,-4.608,-4.6151,-4.6044,-4.6043,-4.6063,-4.6217,-4.6242,-4.6255,-4.613,-4.6132,-4.6133,-4.6218,0,-4.6139,-4.6183,-4.6151,-4.6201,-4.6217,-4.6168,-4.6191,-4.6185,-4.6169,-4.6181,-4.6163,-4.6177,-4.6136,-4.6136,-4.6156,-4.6139,-4.6182,-4.6132,-4.6148,-4.6149,-4.6151,-4.627,-4.6295,-4.6376,-4.6228,-4.623,-4.6231,0,-4.6248,-4.625,-4.6301,-4.6282,-4.6288,-4.6309,-4.6311,-4.6322,-4.6314,-4.6301,-4.6302,-4.627,-4.6295,-4.6248,-4.6281,-4.6248,-4.6253,-4.6245,-4.6247,-4.6247,-4.6195,-4.6271,-4.6401,-4.6412,-4.6248,-4.6246,-4.6245,0,-4.6345,-4.636,-4.6392,-4.6391,-4.6371,-4.6387,-4.6379,-4.6368,-4.6373,-4.6374,-4.6376,-4.6381,-4.6383,-4.6387,-4.6358,-4.6326,-4.6395,-4.6345,-4.6384,-4.6385,-4.64,-4.6399,-4.6531,-4.6405,-4.6405,-4.6404,-4.6404,0,-4.6447,-4.648,-4.6435,-4.6455,-4.649,-4.6453,-4.6489,-4.6476,-4.6467,-4.6483,-4.6441,-4.6457,-4.6418,-4.643,-4.6407,-4.6437,-4.6439,-4.6429,-4.6422,-4.6432,-4.6433,-4.6434,-4.6427,-4.6408,-4.6407,-4.6406,-4.6406,0,-4.6561,-4.6533,-4.6564,-4.6541,-4.6536,-4.6563,-4.6544,-4.6561,-4.6542,-4.6563,-4.6565,-4.6536,-4.6547,-4.6518,-4.6526,-4.6511,-4.6554,-4.6539,-4.6557,-4.6552,-4.6592,-4.6588,-4.6728,-4.6743,-4.6609,-4.661,-4.6611,0,-4.6627,-4.6651,-4.663,-4.6638,-4.6632,-4.6645,-4.6649,-4.6613,-4.6619,-4.661,-4.6628,-4.6637,-4.6641,-4.6662,-4.6641,-4.6647,-4.6631,-4.6679,-4.6631,-4.664,-4.663,-4.6629,-4.663,-4.6689,-4.6691,-4.6692,-4.6693,0,-4.6747,-4.6732,-4.6739,-4.6741,-4.6747,-4.6747,-4.6744,-4.6753,-4.6714,-4.6723,-4.6734,-4.6738,-4.6745,-4.6753,-4.6754,-4.6746,-4.6713,-4.6709,-4.6718,-4.6727,-4.6736,-4.6731,-4.6583,-4.6705,-4.6704,-4.6703,-4.6703,-4.6702,-4.6839,-4.6857,-4.6845,-4.6854,-4.6848,-4.6846,-4.686,-4.6843,-4.6851,-4.6853,-4.6832,-4.6847,-4.6837,-4.6835,-4.683,-4.6841,-4.6819,-4.6832,-4.6836,-4.6839,-4.6845,-4.6735,-4.6841,-4.6841,-4.6841,-4.684,-4.684,0,-4.6956,-4.6945,-4.6954,-4.695,-4.6957,-4.6926,-4.6921,-4.6928,-4.6942,-4.6936,-4.694,-4.6953,-4.696,-4.694,-4.6944,-4.6957,-4.6942,-4.696,-4.6958,-4.6956,-4.6865,-4.6857,-4.6971,-4.6971,-4.6971,-4.6971,-4.6971,-4.6971,-4.7017,-4.7046,-4.7029,-4.7054,-4.7043,-4.7057,-4.7057,-4.7055,-4.7049,-4.7064,-4.707,-4.7056,-4.7044,-4.7047,-4.7052,-4.7046,-4.7049,-4.7071,-4.706,-4.6976,-4.6963,-4.695,-4.6942,-4.7073,-4.7073,-4.7149,-4.715,-4.7151]}]]